Location: Vinland
(47.7731°N, 122.6974°W)
Time: 09:53:37
(UTC+00:00)

Vanguard 2 Rocket - Visible Passes

Search period start: 29 March 2023 00:00
Search period end: 08 April 2023 00:00
Orbit: 555 x 3315 km, 32.9° (Epoch: 28 March)

Date Brightness Start Highest point End Pass type
(mag) Time Alt. Az. Time Alt. Az. Time Alt. Az.
29 Mar 8.6 03:52:18 10° SW 03:58:05 29° SSE 04:03:35 18° SE visible
29 Mar 9.1 06:03:32 10° WSW 06:09:16 30° SSW 06:09:16 30° SSW visible
30 Mar 8.8 05:03:24 10° WSW 05:10:03 31° S 05:11:38 30° SSE visible
30 Mar 9.8 07:15:58 10° WSW 07:17:18 14° WSW 07:17:18 14° WSW visible
31 Mar 8.6 04:03:32 10° SW 04:09:08 28° S 04:14:00 19° SE visible
31 Mar 9.3 06:15:17 10° WSW 06:19:40 23° SW 06:19:40 23° SW visible
01 Apr 8.5 03:03:56 10° SW 03:08:28 23° SSE 03:15:04 10° ESE visible
01 Apr 8.9 05:14:58 10° WSW 05:21:09 26° S 05:22:02 26° S visible
02 Apr 8.7 04:14:57 10° SW 04:20:13 25° S 04:24:23 18° SE visible
02 Apr 9.5 06:27:27 10° WSW 06:30:03 16° SW 06:30:03 16° SW visible
03 Apr 8.6 03:15:10 10° SW 03:19:31 22° S 03:25:42 10° SE visible
03 Apr 9.1 05:26:50 10° WSW 05:32:16 21° S 05:32:25 21° S visible
04 Apr 8.9 04:26:36 10° SW 04:31:19 21° S 04:34:48 17° SSE visible
05 Apr 8.7 03:26:37 10° SW 03:30:35 20° S 03:36:00 10° SE visible
05 Apr 9.4 05:39:24 10° SW 05:42:51 14° SSW 05:42:51 14° SSW visible
06 Apr 9.1 04:38:43 10° SW 04:42:26 15° S 04:45:15 13° S visible
07 Apr 8.9 03:38:25 10° SW 03:41:39 15° S 03:45:45 10° SSE visible
